ONEWEB-0122 (47268 NORAD) Tracking and Keplerian Element Data

This shows tracking and keplerian element data for the satellite.

Feedback or suggestion? Click here.




ElementValue
Catalog47268
NameONEWEB-0122
Epoch Orbit181
Epoch Day20.91667824
Epoch Year2021
RAAN28.0728
Inclination87.3154
Eccentricity0.000955
Argument of Perigee142.7562
Mean Anonmoly250.7012
Mean Motion14.82165804
Decay Rate-0.0129622
L11 47268U 20100L 21020.91667824 -.01296220 00000-0 -17698+0 0 9992
L22 47268 87.3154 28.0728 0009550 142.7562 250.7012 14.82165804 1816

Live tracking and technical data element details for ONEWEB-0122 (NORAD 47268). ONEWEB-0122 can be tracked NOW for your location showing map with azimuth and elevation plus other details from your city location.

Track the satellite on the map from your city or location and see movement details for azimuth, elevation, latitude, longitude, range, height, and movement on the map or in text.







IsCatalogInMostPopularTable: catalog: 47268, numindb: 12
Update: records affected: 1



GetName: 47268 ONEWEB-0122

Hit Count: updated at: Sat, 23 Jan 2021 17:51:38 GMT